IW1RCO-13 Weather Reports


time (UTC)temp
C
wind
direction
speed
KPH
gust
KPH
rain 1hr
cm
rain 24hr
cm
rain mn
cm
humidity
%
barometer
mb
20260506165405 12 0.0 0.0 0.00 0.00 0.00 87 1007.7
20260506164902 12 0.0 0.0 0.00 0.00 0.00 86 1008.2
20260506164405 11 0.0 0.0 0.00 0.00 0.00 87 1007.8
20260506163902 12 0.0 0.0 0.00 0.00 0.00 90 1007.8
20260506163405 12 0.0 0.0 0.00 0.00 0.00 89 1008.3
20260506162901 12 0.0 0.0 0.00 0.00 0.00 87 1008.5
20260506162405 12 0.0 0.0 0.00 0.00 0.00 86 1008.3
20260506161901 13 0.0 0.0 0.00 0.00 0.00 82 1007.9
20260506161404 13 0.0 0.0 0.00 0.00 0.00 85 1008.6
20260506160901 12 0.0 0.0 0.00 0.00 0.00 88 1008.1
20260506160404 12 0.0 0.0 0.00 0.00 0.00 87 1007.7
20260506155901 12 0.0 0.0 0.00 0.00 0.00 83 1007.8
20260506155404 12 0.0 0.0 0.00 0.00 0.00 85 1008.1
20260506154900 12 0.0 0.0 0.00 0.00 0.00 87 1007.9
20260506154404 12 0.0 0.0 0.00 0.00 0.00 87 1007.8
20260506153900 12 0.0 0.0 0.00 0.00 0.00 86 1007.7
20260506153404 13 0.0 0.0 0.00 0.00 0.00 83 1008.3
20260506152900 13 0.0 0.0 0.00 0.00 0.00 80 1007.9
20260506152403 15 0.0 0.0 0.00 0.00 0.00 78 1007.8
20260506151900 14 0.0 0.0 0.00 0.00 0.00 78 1007.5
20260506151403 13 0.0 0.0 0.00 0.00 0.00 82 1008.1
20260506150900 13 0.0 0.0 0.00 0.00 0.00 82 1008.1
20260506150403 13 0.0 0.0 0.00 0.00 0.00 81 1008.1
20260506145859 13 0.0 0.0 0.00 0.00 0.00 81 1007.8
20260506145403 14 0.0 0.0 0.00 0.00 0.00 77 1007.9
20260506144859 13 0.0 0.0 0.00 0.00 0.00 81 1008.1
20260506144402 13 0.0 0.0 0.00 0.00 0.00 82 1008.2
20260506140401 15 0.0 0.0 0.00 0.00 0.00 80 1007.8
20260506135904 15 0.0 0.0 0.00 0.00 0.00 81 1007.9
20260506135401 16 0.0 0.0 0.00 0.00 0.00 77 1007.7
20260506134904 16 0.0 0.0 0.00 0.00 0.00 81 1007.9
20260506134401 16 0.0 0.0 0.00 0.00 0.00 82 1008.6
20260506133904 15 0.0 0.0 0.00 0.00 0.00 86 1008.1
20260506133401 13 0.0 0.0 0.00 0.00 0.00 88 1008.3
20260506132904 14 0.0 0.0 0.00 0.00 0.00 86 1008.1
20260506132400 15 0.0 0.0 0.00 0.00 0.00 83 1007.7
20260506131904 13 0.0 0.0 0.00 0.00 0.00 88 1008.1
20260506131401 13 0.0 0.0 0.00 0.00 0.00 90 1008.5
20260506130903 13 0.0 0.0 0.00 0.00 0.00 90 1008.2
20260506130400 13 0.0 0.0 0.00 0.00 0.00 89 1007.7
20260506125903 13 0.0 0.0 0.00 0.00 0.00 89 1008.3
20260506125400 13 0.0 0.0 0.00 0.00 0.00 88 1008.7
20260506124903 13 0.0 0.0 0.00 0.00 0.00 84 1008.3
20260506124359 13 0.0 0.0 0.00 0.00 0.00 87 1007.9
20260506123903 15 0.0 0.0 0.00 0.00 0.00 85 1007.9
20260506123359 13 0.0 0.0 0.00 0.00 0.00 87 1008.6
20260506122902 14 0.0 0.0 0.00 0.00 0.00 87 1008.1
20260506122359 15 0.0 0.0 0.00 0.00 0.00 87 1008.2
20260506121359 14 0.0 0.0 0.00 0.00 0.00 89 1008.1
20260506120902 13 0.0 0.0 0.00 0.00 0.00 91 1008.5
20260506120405 12 0.0 0.0 0.00 0.00 0.00 96 1007.9
20260506115902 12 0.0 0.0 0.00 0.00 0.00 96 1008.3
20260506115405 12 0.0 0.0 0.00 0.00 0.00 95 1008.3
20260506114901 12 0.0 0.0 0.00 0.00 0.00 94 1008.9
20260506114405 12 0.0 0.0 0.00 0.00 0.00 94 1008.3
20260506113901 12 0.0 0.0 0.00 0.00 0.00 97 1008.4
20260506113405 11 0.0 0.0 0.00 0.00 0.00 98 1007.9
20260506112901 11 0.0 0.0 0.00 0.00 0.00 99 1007.9
20260506112404 11 0.0 0.0 0.00 0.00 0.00 99 1008.1
20260506111901 11 0.0 0.0 0.00 0.00 0.00 99 1007.8
20260506111404 11 0.0 0.0 0.00 0.00 0.00 99 1008.1
20260506110901 11 0.0 0.0 0.00 0.00 0.00 99 1008.3
20260506110404 11 0.0 0.0 0.00 0.00 0.00 99 1008.1
20260506105900 11 0.0 0.0 0.00 0.00 0.00 99 1008.1
20260506105404 11 0.0 0.0 0.00 0.00 0.00 99 1008.4
20260506104900 11 0.0 0.0 0.00 0.00 0.00 99 1008.5
20260506104404 11 0.0 0.0 0.00 0.00 0.00 99 1007.7
20260506103900 11 0.0 0.0 0.00 0.00 0.00 99 1008.1
20260506100403 11 0.0 0.0 0.00 0.00 0.00 99 1007.4
20260506095859 12 0.0 0.0 0.00 0.00 0.00 99 1007.4
20260506095403 12 0.0 0.0 0.00 0.00 0.00 99 1007.5
20260506094859 12 0.0 0.0 0.00 0.00 0.00 99 1007.7
20260506094402 11 0.0 0.0 0.00 0.00 0.00 99 1007.7
20260506093859 11 0.0 0.0 0.00 0.00 0.00 99 1007.4
20260506093402 12 0.0 0.0 0.00 0.00 0.00 99 1007.9
20260506092905 12 0.0 0.0 0.00 0.00 0.00 99 1007.6
20260506092402 12 0.0 0.0 0.00 0.00 0.00 99 1007.6
20260506091905 12 0.0 0.0 0.00 0.00 0.00 99 1007.8
20260506091402 12 0.0 0.0 0.00 0.00 0.00 99 1007.6
20260506090905 12 0.0 0.0 0.00 0.00 0.00 99 1007.6
20260506090401 12 0.0 0.0 0.00 0.00 0.00 99 1008.5
20260506085905 12 0.0 0.0 0.00 0.00 0.00 99 1008.1
20260506085401 12 0.0 0.0 0.00 0.00 0.00 99 1007.5
20260506084905 12 0.0 0.0 0.00 0.00 0.00 99 1007.7
20260506084401 12 0.0 0.0 0.00 0.00 0.00 99 1007.6
20260506083904 12 0.0 0.0 0.00 0.00 0.00 99 1007.2
20260506083401 12 0.0 0.0 0.00 0.00 0.00 99 1007.5
20260506082904 11 0.0 0.0 0.00 0.00 0.00 98 1007.6
20260506082401 12 0.0 0.0 0.00 0.00 0.00 98 1007.5
20260506081904 11 0.0 0.0 0.00 0.00 0.00 98 1007.7
20260506081409 11 0.0 0.0 0.00 0.00 0.00 95 1007.2
20260506080904 11 0.0 0.0 0.00 0.00 0.00 93 1007.5
20260506080400 12 0.0 0.0 0.00 0.00 0.00 96 1007.6
20260506073359 12 0.0 0.0 0.00 0.00 0.00 97 1007.5
20260506072903 12 0.0 0.0 0.00 0.00 0.00 97 1007.5
20260506072359 12 0.0 0.0 0.00 0.00 0.00 97 1007.1
20260506071903 12 0.0 0.0 0.00 0.00 0.00 97 1007.6
20260506071359 12 0.0 0.0 0.00 0.00 0.00 97 1008.0
20260506070902 12 0.0 0.0 0.00 0.00 0.00 97 1007.5
20260506070359 12 0.0 0.0 0.00 0.00 0.00 96 1007.7
20260506060404 11 0.0 0.0 0.00 0.00 0.00 98 1007.8
20260506051403 11 0.0 0.0 0.00 0.00 0.00 98 1007.7
20260506050900 11 0.0 0.0 0.00 0.00 0.00 99 1007.6
20260506050403 11 0.0 0.0 0.00 0.00 0.00 99 1007.5
20260506044859 11 0.0 0.0 0.00 0.00 0.00 99 1008.3
20260506044402 11 0.0 0.0 0.00 0.00 0.00 99 1008.1
20260506043859 11 0.0 0.0 0.00 0.00 0.00 99 1007.7
20260506043402 11 0.0 0.0 0.00 0.00 0.00 99 1007.9
20260506042903 11 0.0 0.0 0.00 0.00 0.00 99 1007.7
20260506042402 11 0.0 0.0 0.00 0.00 0.00 99 1007.5
20260506041905 11 0.0 0.0 0.00 0.00 0.00 99 1007.9
20260506041402 11 0.0 0.0 0.00 0.00 0.00 99 1007.5
20260506040905 11 0.0 0.0 0.00 0.00 0.00 99 1007.5
20260506040402 11 0.0 0.0 0.00 0.00 0.00 99 1008.0
20260506035905 11 0.0 0.0 0.00 0.00 0.00 98 1007.7
20260506035401 11 0.0 0.0 0.00 0.00 0.00 99 1008.3
20260506034905 11 0.0 0.0 0.00 0.00 0.00 99 1008.1
20260506034401 11 0.0 0.0 0.00 0.00 0.00 98 1008.0
20260506033904 11 0.0 0.0 0.00 0.00 0.00 99 1008.1
20260506033401 11 0.0 0.0 0.00 0.00 0.00 98 1008.2
20260506032904 11 0.0 0.0 0.00 0.00 0.00 99 1007.7
20260506032401 11 0.0 0.0 0.00 0.00 0.00 99 1007.7
20260506031904 11 0.0 0.0 0.00 0.00 0.00 98 1008.0
20260506031400 11 0.0 0.0 0.00 0.00 0.00 98 1008.1
20260506030904 11 0.0 0.0 0.00 0.00 0.00 98 1007.7
20260506030838 11 0.0 0.0 0.00 0.00 0.00 96 1008.1
20260506030027 11 0.0 0.0 0.00 0.00 0.00 93 1008.0
20260506024400 11 0.0 0.0 0.00 0.00 0.00 93 1007.5
20260506023904 11 0.0 0.0 0.00 0.00 0.00 93 1007.7
20260506020359 11 0.0 0.0 0.00 0.00 0.00 93 1008.8
20260506015902 11 0.0 0.0 0.00 0.00 0.00 93 1008.7
20260506015358 11 0.0 0.0 0.00 0.00 0.00 93 1008.3
20260506014902 11 0.0 0.0 0.00 0.00 0.00 94 1008.3
20260506014405 11 0.0 0.0 0.00 0.00 0.00 93 1007.9
20260506013902 11 0.0 0.0 0.00 0.00 0.00 94 1007.6
20260506013405 12 0.0 0.0 0.00 0.00 0.00 94 1008.1
20260506012901 11 0.0 0.0 0.00 0.00 0.00 93 1008.6
20260506012405 11 0.0 0.0 0.00 0.00 0.00 93 1008.5
20260506011901 12 0.0 0.0 0.00 0.00 0.00 93 1008.3
20260506011404 12 0.0 0.0 0.00 0.00 0.00 92 1009.1
20260506010901 11 0.0 0.0 0.00 0.00 0.00 92 1008.5
20260506010404 11 0.0 0.0 0.00 0.00 0.00 92 1009.3
20260506005901 11 0.0 0.0 0.00 0.00 0.00 92 1009.4
20260506005404 11 0.0 0.0 0.00 0.00 0.00 94 1009.6
20260506004900 11 0.0 0.0 0.00 0.00 0.00 95 1009.4
20260506003901 11 0.0 0.0 0.00 0.00 0.00 95 1008.7
20260506003404 11 0.0 0.0 0.00 0.00 0.00 96 1009.7
20260506002900 11 0.0 0.0 0.00 0.00 0.00 96 1009.3
20260506002404 11 0.0 0.0 0.00 0.00 0.00 95 1009.7
20260506001900 11 0.0 0.0 0.00 0.00 0.00 96 1009.6
20260506001403 11 0.0 0.0 0.00 0.00 0.00 97 1009.7
20260506000900 11 0.0 0.0 0.00 0.00 0.00 97 1010.4
20260506000403 11 0.0 0.0 0.00 0.00 0.00 97 1010.6
20260505235900 11 0.0 0.0 0.00 0.00 0.00 96 1010.3
20260505235403 11 0.0 0.0 0.00 0.00 0.00 96 1010.6
20260505234859 11 0.0 0.0 0.00 0.00 0.00 96 1009.7
20260505234403 11 0.0 0.0 0.00 0.00 0.00 96 1010.0
20260505233859 11 0.0 0.0 0.00 0.00 0.00 96 1010.7
20260505233402 11 0.0 0.0 0.00 0.00 0.00 97 1010.0
20260505232859 11 0.0 0.0 0.00 0.00 0.00 96 1010.0
20260505232402 11 0.0 0.0 0.00 0.00 0.00 96 1010.4
20260505231859 11 0.0 0.0 0.00 0.00 0.00 96 1010.7
20260505231402 11 0.0 0.0 0.00 0.00 0.00 96 1010.3
20260505230905 11 0.0 0.0 0.00 0.00 0.00 95 1010.5
20260505230402 11 0.0 0.0 0.00 0.00 0.00 95 1011.2
20260505225905 11 0.0 0.0 0.00 0.00 0.00 95 1011.2
20260505225402 11 0.0 0.0 0.00 0.00 0.00 94 1011.0
20260505224905 11 0.0 0.0 0.00 0.00 0.00 95 1011.2
20260505224401 11 0.0 0.0 0.00 0.00 0.00 95 1011.4
20260505223905 11 0.0 0.0 0.00 0.00 0.00 95 1011.5
20260505220403 10 0.0 0.0 0.00 0.00 0.00 94 1010.4
20260505215900 10 0.0 0.0 0.00 0.00 0.00 94 1011.7
20260505215403 10 0.0 0.0 0.00 0.00 0.00 94 1011.5
20260505214900 10 0.0 0.0 0.00 0.00 0.00 94 1011.5
20260505214403 10 0.0 0.0 0.00 0.00 0.00 94 1011.5
20260505213859 10 0.0 0.0 0.00 0.00 0.00 94 1010.4
20260505213403 10 0.0 0.0 0.00 0.00 0.00 93 1011.2
20260505212859 11 0.0 0.0 0.00 0.00 0.00 92 1011.5
20260505212403 10 0.0 0.0 0.00 0.00 0.00 93 1011.0
20260505211859 10 0.0 0.0 0.00 0.00 0.00 93 1011.3
20260505211402 10 0.0 0.0 0.00 0.00 0.00 92 1011.4
20260505210859 10 0.0 0.0 0.00 0.00 0.00 92 1011.6
20260505210402 10 0.0 0.0 0.00 0.00 0.00 92 1011.9
20260505205859 10 0.0 0.0 0.00 0.00 0.00 92 1012.0
20260505205402 10 0.0 0.0 0.00 0.00 0.00 93 1011.8
20260505204905 10 0.0 0.0 0.00 0.00 0.00 93 1011.7
20260505204402 10 0.0 0.0 0.00 0.00 0.00 93 1012.1
20260505203401 10 0.0 0.0 0.00 0.00 0.00 93 1012.0
20260505202905 10 0.0 0.0 0.00 0.00 0.00 93 1012.1
20260505202401 10 0.0 0.0 0.00 0.00 0.00 93 1012.2
20260505201905 10 0.0 0.0 0.00 0.00 0.00 93 1011.8
20260505201401 10 0.0 0.0 0.00 0.00 0.00 92 1011.8
20260505200904 11 0.0 0.0 0.00 0.00 0.00 92 1012.1
20260505200401 11 0.0 0.0 0.00 0.00 0.00 93 1011.7
20260505195904 11 0.0 0.0 0.00 0.00 0.00 92 1011.6
20260505195401 11 0.0 0.0 0.00 0.00 0.00 93 1012.8
20260505194904 11 0.0 0.0 0.00 0.00 0.00 93 1011.6
20260505194400 11 0.0 0.0 0.00 0.00 0.00 94 1012.2
20260505193904 11 0.0 0.0 0.00 0.00 0.00 93 1011.5
20260505193400 11 0.0 0.0 0.00 0.00 0.00 94 1011.6
20260505192903 11 0.0 0.0 0.00 0.00 0.00 93 1011.4
20260505192400 12 0.0 0.0 0.00 0.00 0.00 93 1011.5
20260505191903 12 0.0 0.0 0.00 0.00 0.00 92 1011.5
20260505191400 12 0.0 0.0 0.00 0.00 0.00 92 1011.5
20260505190903 12 0.0 0.0 0.00 0.00 0.00 92 1011.3
20260505190359 12 0.0 0.0 0.00 0.00 0.00 92 1011.6
20260505185903 13 0.0 0.0 0.00 0.00 0.00 92 1010.9
20260505185359 13 0.0 0.0 0.00 0.00 0.00 92 1011.3
20260505184903 12 0.0 0.0 0.00 0.00 0.00 93 1011.2
20260505184359 12 0.0 0.0 0.00 0.00 0.00 93 1011.4
20260505180405 12 0.0 0.0 0.00 0.00 0.00 93 1011.6
20260505175902 12 0.0 0.0 0.00 0.00 0.00 93 1011.5
20260505175405 12 0.0 0.0 0.00 0.00 0.00 93 1011.3
20260505174902 12 0.0 0.0 0.00 0.00 0.00 94 1010.9
20260505174405 12 0.0 0.0 0.00 0.00 0.00 94 1010.8
20260505173901 12 0.0 0.0 0.00 0.00 0.00 94 1011.7
20260505173405 12 0.0 0.0 0.00 0.00 0.00 93 1011.0
20260505172901 12 0.0 0.0 0.00 0.00 0.00 93 1011.1
20260505172404 13 0.0 0.0 0.00 0.00 0.00 92 1010.7
20260505171901 13 0.0 0.0 0.00 0.00 0.00 92 1011.5
20260505171404 13 0.0 0.0 0.00 0.00 0.00 91 1010.5
20260505170901 13 0.0 0.0 0.00 0.00 0.00 90 1010.9
20260505170404 13 0.0 0.0 0.00 0.00 0.00 89 1011.3
20260505165900 13 0.0 0.0 0.00 0.00 0.00 88 1011.3